星链-5048 (STARLINK-5048 )

导读 | 豆包AI

STARLINK-5048是美国SpaceX公司星链(Starlink)星座的成员,于2022年9月24日发射入轨,属于低轨宽带通信卫星。卫星采用平板设计搭配太阳电池阵,搭载Ku/Ka波段通信载荷,配备氪工质霍尔推进器,具备自主避撞能力,旨在为全球提供高速低延迟宽带互联网服务,设计使用寿命约5-7年,退役后会再入大气层烧毁。

基本信息
目录编号:
53911
目录名称:
STARLINK-5048
国际标识:
2022-119AB
轨道中心:
EARTH
卫星名称:
星链-5048
卫星全名:
星链-5048 (STARLINK-5048 )
卫星状态:
在轨 (已飞行1314 天)
发射日期:
2022-09-24 UTC
国别 :
美国 (US)
星等 :
--
轨道信息
数据来源 国际轨道数据 AOE轨道数据
星历时间 2026-04-30T12:00:41+0800
12小时前
查看轨道信息
2026-04-29T16:00:00+0800
1天前
查看轨道信息
半长轴 6917.882km 6917.888km
偏心率 0.0001432 0.0001313
轨道倾角 53.218° 53.217°
近地点辐角 82.594° 79.642°
升交点赤经 83.208° 86.952°
平近点角 277.521° 68.900°
近地点 538.754km 538.842km
远地点 540.736km 540.66km
周期 95.438分钟 95.438分钟
每日圈数 15.088398 15.088376
详细信息
固有亮度:
5
最大亮度:
2.5
卫星平台:
Starlink v1.5
覆盖范围:
全球
运营商:
太空探索技术公司
运营商所在国:
美国
制造商(研发单位):
太空探索技术公司
制造商所在国:
美国
使用方式:
暂无
卫星简介
星链(Starlink)计划是由太空探索技术公司(SpaceX)提出的一个巨型低轨卫星互联网星座项目,计划在2019年至2024年间在太空搭建由约1.2万颗卫星组成的“星链”网络,其中1584颗将部署在地球上空550千米处的近地轨道,并从2020年开始工作。该卫星仍在工作。
2D轨道图
3D轨道图
轨道高度分析图
轨道倾角分析图
轨道综合分析图
查看轨道综合分析图